This is the latest recevied weather packets stored in our database for station/object IK6ZNK-3. If no packets are shown the sender has not sent any weather packets the latest 10 day(s).
| Time | Temp. | Humidity | Pressure | Rain* | Wind** | Luminosity | Snow |
|---|---|---|---|---|---|---|---|
| 1777551008 | 13.33° C | 77% | 1013.6 hPa | 0 mm | - | - | - |
| 1777550409 | 13.33° C | 77% | 1013.5 hPa | 0 mm | - | - | - |
| 1777549811 | 13.33° C | 78% | 1013.5 hPa | 0 mm | - | - | - |
| 1777549210 | 12.78° C | 80% | 1013.6 hPa | 0 mm | - | - | - |
| 1777548613 | 12.22° C | 83% | 1013.7 hPa | 0 mm | - | - | - |
| 1777548007 | 11.67° C | 84% | 1013.6 hPa | 0 mm | - | - | - |
| 1777547408 | 11.67° C | 86% | 1013.9 hPa | 0 mm | - | - | - |
| 1777546811 | 11.11° C | 94% | 1013.7 hPa | 0 mm | - | - | - |
| 1777546213 | 10.56° C | 97% | 1013.5 hPa | 0 mm | - | - | - |
| 1777545609 | 10° C | 98% | 1013.5 hPa | 0 mm | - | - | - |
| 1777545011 | 10° C | 99% | 1013.5 hPa | 0 mm | - | - | - |
| 1777544412 | 10° C | 99% | 1013.2 hPa | 0 mm | - | - | - |
| 1777543809 | 10° C | 99% | 1013.5 hPa | 0 mm | - | - | - |
| 1777543213 | 10.56° C | 99% | 1013.4 hPa | 0 mm | - | - | - |
| 1777542608 | 10° C | 99% | 1013.3 hPa | 0 mm | - | - | - |
| 1777542012 | 10° C | 99% | 1013.5 hPa | 0 mm | - | - | - |
| 1777541407 | 10.56° C | 99% | 1013.4 hPa | 0 mm | - | - | - |
| 1777540812 | 10° C | 99% | 1013.2 hPa | 0 mm | - | - | - |
| 1777540209 | 10° C | 99% | 1013.4 hPa | 0.51 mm | - | - | - |
| 1777539612 | 10.56° C | 99% | 1013.2 hPa | 1.02 mm | - | - | - |
| 1777539007 | 10.56° C | 99% | 1013.2 hPa | 1.27 mm | - | - | - |
| 1777538409 | 10.56° C | 99% | 1013 hPa | 1.27 mm | - | - | - |
| 1777537809 | 10° C | 99% | 1012.9 hPa | 1.78 mm | - | - | - |
| 1777537209 | 10° C | 99% | 1013 hPa | 2.03 mm | - | - | - |
| 1777536611 | 10.56° C | 99% | 1012.8 hPa | 1.52 mm | - | - | - |
* Rain latest hour (hover to see other rain measurements)
** Current wind speed in m/s (hover to see current wind gust speed)